GFSFLT1_2pvu_pres_336.txt.gz
Presure
141 145 146 143 146 151 155 152 142 164 168 171 172 82 180 175 199 182 190 195 196 177 241 183 216 243 265 240 272 263 260 273
138 148 152 154 155 156 154 161 167 173 166 173 174 180 177 199 184 192 196 205 207 243 202 217 250 232 268 265 266 261 269 266
145 143 146 150 151 156 160 171 168 168 173 175 179 181 201 187 192 197 207 212 236 206 209 236 269 222 243 253 263 289 276 275
149 154 152 154 161 171 172 163 171 171 176 176 187 199 189 191 201 210 220 234 216 221 218 263 270 258 259 239 284 273 272 307
156 162 162 168 171 162 167 170 171 177 186 187 137 192 192 204 208 221 127 223 223 247 244 271 238 252 225 267 280 266 310 336
158 160 163 167 170 171 170 178 182 211 184 186 192 195 208 206 228 221 231 227 228 267 264 253 263 253 270 278 272 304 314 324
165 166 171 173 179 180 193 154 192 187 189 120 197 210 205 237 212 229 227 227 232 260 259 257 257 274 277 264 290 338 323 422
178 177 181 187 183 193 213 200 185 191 193 201 209 231 222 225 221 224 232 245 254 258 253 251 260 281 261 276 303 329 405 406
182 188 208 214 201 195 186 190 191 197 211 207 234 210 201 228 222 229 232 252 268 262 250 267 283 277 269 298 337 313 390 422
199 213 185 190 189 189 190 194 204 210 231 218 212 206 225 225 240 250 252 268 250 258 255 261 276 256 281 327 318 391 426 453
193 186 186 185 191 197 201 220 220 225 210 205 219 223 227 235 229 266 244 248 249 255 268 278 277 274 297 327 342 422 455 388
185 187 192 194 195 210 218 228 210 217 201 200 214 235 228 238 261 272 258 245 255 256 278 264 266 292 335 312 421 449 419 356
189 193 199 210 230 234 213 207 215 194 201 204 230 232 243 258 253 250 263 262 255 264 270 266 288 295 319 378 448 425 360 337
204 210 211 234 210 217 212 203 193 202 209 236 223 252 270 249 250 263 248 253 250 282 266 268 282 328 305 446 460 362 336 326
230 229 208 221 207 204 191 194 197 205 227 235 233 261 253 249 240 250 256 264 271 265 253 285 307 311 392 466 372 340 328 318
225 202 209 198 186 195 189 202 215 229 234 263 218 220 255 252 250 270 258 260 266 264 281 269 325 301 464 395 343 331 319 334
195 192 192 96 193 192 203 231 233 236 240 215 268 263 252 241 247 267 256 252 266 258 271 283 312 303 418 350 332 320 326 335
200 202 197 188 198 210 203 236 244 266 278 266 263 250 251 251 270 262 263 254 262 279 262 297 302 460 374 334 322 319 334 330
217 220 210 209 212 205 238 239 288 214 266 254 259 268 255 271 258 251 255 259 278 268 270 320 294 416 346 324 319 331 333 322

GFSFLT1_2pvu_pres_342.txt.gz
Presure
134 143 149 152 150 158 159 169 170 165 184 186 191 189 202 200 186 193 198 200 207 236 227 214 214 207 218 240 243 245 245 259
139 139 152 155 160 162 168 209 182 183 192 190 210 227 181 192 192 199 202 212 234 205 218 209 208 213 230 253 278 273 266 282
142 149 153 159 161 127 178 197 196 193 222 188 188 189 192 197 199 205 221 234 203 209 213 214 212 227 254 278 274 281 282 282
150 158 160 167 176 183 203 188 217 185 231 181 192 197 201 200 208 227 235 199 211 215 215 216 223 238 288 274 279 277 281 286
161 165 176 187 186 185 186 187 190 173 183 193 201 200 203 229 229 213 208 213 209 222 215 226 272 286 288 282 285 276 281 307
176 186 185 188 189 184 193 197 174 186 199 201 202 211 241 230 200 206 217 213 224 211 225 267 282 282 281 280 268 292 304 288
189 189 188 186 160 195 195 176 197 201 202 206 234 227 215 206 201 221 233 227 214 223 241 282 276 281 277 271 292 297 286 325
192 191 185 197 201 200 193 200 203 207 226 234 223 207 208 213 215 231 231 216 229 220 287 282 285 279 276 289 291 279 330 345
185 187 205 200 197 192 202 210 233 233 227 214 208 206 222 234 233 216 227 234 223 298 289 281 267 267 291 286 274 287 308 367
206 206 203 204 200 212 235 242 230 214 206 204 216 229 227 234 217 222 229 229 288 270 270 264 268 260 295 270 278 329 334 347
207 208 212 225 241 241 225 211 213 198 204 224 226 238 229 220 222 224 257 279 267 265 275 264 283 290 275 271 289 301 355 335
228 231 235 240 218 216 222 193 200 220 229 241 236 223 223 227 223 273 279 267 269 266 262 267 289 279 267 299 325 304 339 350
248 244 211 225 214 201 195 203 229 230 100 236 224 223 226 222 287 279 270 269 267 262 270 280 288 263 271 296 300 351 331 328
226 225 202 202 194 211 230 224 240 240 237 223 220 227 223 274 279 268 273 268 257 262 276 287 266 261 302 307 289 339 326 325
199 198 216 210 222 226 228 237 239 233 221 224 227 289 276 286 266 269 267 268 265 266 281 275 259 275 288 305 340 330 319 319
212 212 221 225 230 238 239 239 222 221 219 230 290 277 282 268 254 274 270 263 269 295 281 256 266 285 291 285 339 318 317 315
224 226 234 239 235 238 231 217 219 218 236 288 287 296 274 274 270 266 277 276 299 278 256 257 275 281 309 288 330 311 314 310
236 238 233 230 227 222 222 206 235 309 301 295 292 278 266 269 274 276 282 268 257 251 256 272 286 276 300 328 322 310 309 316
232 228 221 219 219 218 211 236 317 329 324 300 285 290 276 285 285 262 250 252 255 270 287 284 289 282 285 338 317 314 309 324

GFSFLT1_2pvu_pres_345.txt.gz
Presure
145 141 148 152 153 158 159 174 179 184 187 190 191 192 192 199 191 205 208 214 229 234 215 206 212 229 240 224 227 230 285 284
147 154 144 143 154 161 177 188 189 189 191 193 195 197 202 200 206 212 227 241 223 209 207 218 230 240 221 228 226 301 297 291
144 139 147 145 160 172 197 190 187 195 197 184 201 206 202 212 219 235 230 224 205 205 229 232 239 222 228 233 298 282 275 279
134 153 144 183 177 188 191 189 195 192 190 208 204 210 216 234 241 229 199 203 209 227 239 235 227 225 237 289 282 279 274 307
144 164 180 191 195 193 186 190 192 198 212 207 215 230 244 234 212 201 204 221 228 247 229 231 222 238 279 273 279 276 294 288
195 186 192 200 191 189 192 200 210 211 215 227 232 238 217 210 201 204 228 232 247 234 233 222 237 281 277 277 274 285 304 278
197 195 193 184 197 211 212 214 205 227 228 243 226 213 213 199 207 230 248 245 228 234 228 245 290 288 281 277 277 302 276 285
195 174 216 225 219 218 191 234 228 238 236 211 220 199 203 225 230 253 239 224 234 233 274 279 282 278 277 272 296 272 277 296
200 232 227 182 224 226 225 232 238 210 222 202 205 208 233 247 251 225 223 229 233 281 290 275 292 279 272 283 288 268 288 313
219 224 136 157 229 239 242 215 221 201 202 202 226 246 252 247 226 233 223 265 282 282 280 272 275 285 292 303 260 278 286 307
171 234 204 238 235 219 213 203 203 203 220 242 252 247 233 227 234 227 312 295 273 277 272 276 288 292 282 260 273 293 303 309
206 235 222 211 208 204 204 204 220 243 251 245 232 221 230 229 317 298 284 291 282 276 282 290 285 256 261 275 288 280 305 343
208 208 212 204 202 206 221 246 249 243 237 223 214 224 245 314 306 295 293 281 279 282 286 263 256 271 289 303 295 318 310 331
210 208 205 217 228 245 245 241 238 226 221 230 227 288 328 317 297 292 313 290 291 288 250 258 261 275 283 286 281 303 338 321
219 225 230 244 241 237 235 229 218 213 232 240 333 318 323 324 308 288 275 256 255 254 259 268 274 289 280 277 316 287 328 324
236 242 240 236 232 230 208 212 214 222 235 335 329 305 286 269 262 257 256 250 258 277 278 295 299 270 274 297 301 334 322 320
238 237 225 228 220 203 210 216 224 244 341 309 284 269 265 252 259 252 255 269 282 289 284 276 281 291 300 313 280 324 317 313
222 214 214 213 210 204 233 229 250 258 298 279 272 263 255 250 252 258 295 282 276 275 285 274 287 306 311 298 326 319 315 311
225 217 202 211 206 206 234 271 339 295 281 275 264 257 257 252 254 277 279 269 275 315 298 310 306 307 307 276 326 318 316 322

GFSFLT1_2pvu_pres_351.txt.gz
Presure
142 144 136 162 151 151 190 196 196 201 205 199 202 225 234 237 220 225 229 246 231 225 224 231 241 255 226 216 229 244 252 255
158 132 169 141 151 183 199 203 203 206 202 214 224 238 225 220 239 243 237 221 222 226 234 252 251 208 214 237 249 255 296 301
174 151 137 148 203 205 206 211 210 218 208 237 229 226 240 250 235 222 224 224 230 241 251 208 214 221 247 249 322 305 309 293
137 143 214 188 215 218 220 222 228 237 234 237 240 245 232 220 223 225 228 233 251 208 210 224 246 247 272 319 307 308 314 291
210 216 216 215 226 236 241 240 234 243 243 190 227 220 223 225 227 230 248 247 212 215 235 246 257 342 343 321 279 273 264 260
220 182 224 224 223 232 245 249 249 201 179 212 225 225 226 233 244 254 209 213 216 248 246 288 283 274 270 261 261 271 272 286
230 229 218 246 250 250 243 223 192 209 224 224 225 232 244 252 232 211 210 236 238 259 276 279 279 272 263 256 262 287 293 283
228 245 238 236 228 202 202 222 219 225 227 234 245 245 237 219 214 229 245 236 289 255 288 274 272 270 266 268 285 284 283 281
209 237 211 202 205 218 223 227 231 239 245 233 227 231 214 215 243 242 237 306 283 285 273 274 269 265 275 286 287 309 320 325
201 206 208 223 225 236 241 239 236 230 234 236 239 207 226 244 233 239 310 281 287 276 270 265 264 274 283 333 334 320 322 328
215 223 228 237 235 233 235 237 237 246 242 214 213 229 245 241 238 322 295 286 276 276 266 263 272 286 316 310 314 329 329 312
231 233 228 219 225 234 232 242 242 224 218 219 239 246 242 236 315 295 289 277 281 269 261 267 285 316 307 312 317 334 318 305
226 216 224 231 252 249 238 229 203 216 218 250 246 229 315 313 304 295 293 285 269 263 266 290 321 309 310 311 328 313 324 307
224 233 250 245 238 227 220 207 215 236 241 243 233 239 322 313 300 300 286 269 265 267 286 325 312 334 313 306 314 320 304 295
234 253 233 226 223 218 216 228 240 241 241 241 258 328 315 299 294 281 269 264 267 285 316 312 336 335 347 316 318 302 287 318
237 230 224 221 208 220 224 244 240 244 235 322 328 315 306 292 276 264 265 269 286 331 315 304 364 355 343 315 301 285 314 307
229 223 207 197 219 202 244 246 241 237 235 327 310 301 285 273 263 266 277 281 332 320 305 363 353 348 317 303 287 316 306 310
227 204 205 211 219 243 240 238 245 272 317 310 300 282 269 263 278 278 306 328 314 304 366 349 343 320 303 289 289 307 299 307
209 213 224 220 241 236 232 236 285 314 313 303 280 267 267 286 295 328 321 304 301 372 350 344 326 304 289 279 309 308 314 358